Hourly Data Report for October 11, 2014

All times are specified in Local Standard Time (LST). Add 1 hour to adjust for Daylight Saving Time where and when it is observed.

MONCTON INTL A
NEW BRUNSWICK

46°06'44.000" N
64°40'43.000" W
70.70 m
8103201
71705
YQM

Download Data

Hourly Data (October 2014)
Hourly Data Report for October 11, 2014
Temp Definition
°C
Dew Point Temp Definition
°C
Rel Hum Definition
%
Wind Dir Definition
10's deg

Wind Spd Definition
km/h
Visibility Definition
km
Stn Press Definition
kPa
Hmdx Definition


Wind Chill Definition


Weather Definition


TIME
00:00 Legend Double Dagger 6.3 4.1 86 24 14 24.1 100.74     LegendNANA
01:00 Legend Double Dagger 5.6 3.9 89 23 14 24.1 100.81     LegendNANA
02:00 Legend Double Dagger 5.5 3.8 89 26 13 24.1 100.80     Clear
03:00 Legend Double Dagger 4.6 3.4 92 21 10 24.1 100.82     LegendNANA
04:00 Legend Double Dagger 4.0 2.7 91 21 14 24.1 100.88     LegendNANA
05:00 Legend Double Dagger 3.7 2.2 90 24 10 24.1 100.94     Mainly Clear
06:00 Legend Double Dagger 3.0 1.8 92 22 13 24.1 100.98     LegendNANA
07:00 Legend Double Dagger 2.7 1.7 93 21 12 24.1 101.03     LegendNANA
08:00 Legend Double Dagger 3.4 2.2 92 23 13 24.1 101.10     Mainly Clear
09:00 Legend Double Dagger 6.0 3.5 84 23 15 24.1 101.12     LegendNANA
10:00 Legend Double Dagger 7.8 4.2 78 22 16 24.1 101.11     LegendNANA
11:00 Legend Double Dagger 9.5 4.9 73 24 10 24.1 101.07     Mostly Cloudy
12:00 Legend Double Dagger 10.0 4.6 69 22 10 24.1 101.03     LegendNANA
13:00 Legend Double Dagger 10.3 4.7 68 22 11 24.1 101.00     LegendNANA
14:00 Legend Double Dagger 10.4 4.6 67 22 11 24.1 100.94     Mostly Cloudy
15:00 Legend Double Dagger 10.0 4.0 66 24 11 24.1 100.89     LegendNANA
16:00 Legend Double Dagger 9.6 4.4 70 22 12 24.1 100.84     LegendNANA
17:00 Legend Double Dagger 9.0 4.3 72 23 10 24.1 100.85     Mostly Cloudy
18:00 Legend Double Dagger 8.0 4.2 77 21 8 24.1 100.83     LegendNANA
19:00 Legend Double Dagger 7.1 4.1 81 23 9 24.1 100.82     LegendNANA
20:00 Legend Double Dagger 5.8 3.7 86 23 11 24.1 100.81     Clear
21:00 Legend Double Dagger 4.8 3.5 91 23 11 24.1 100.77     LegendNANA
22:00 Legend Double Dagger 4.8 3.9 94 21 10 24.1 100.75     LegendNANA
23:00 Legend Double Dagger 4.7 3.7 93 22 8 24.1 100.76     Mostly Cloudy

Notes on Data Quality.

Legend

  • E = Estimated
  • M = Missing
  • NA = Not Available
  • ‡ = Partner data that is not subject to review by the National Climate Archives
Date modified: